Quantico, VA

11:02 PM EST on December 08, 2016 (GMT -0500)
Quantico Marine Corps Air Facility

Weather History for KNYG - November, 2013

Change the Weather History Date:

Saturday, November 23, 2013

  Actual Average Record
Temperature  
Mean Temperature 46 °F -  
Max Temperature 57 °F 52 °F 70 °F (2010)
Min Temperature 34 °F 35 °F 22 °F (2000)
Degree Days  
Heating Degree Days 18    
Moisture  
Dew Point 26 °F    
Average Humidity 45    
Maximum Humidity 65    
Minimum Humidity 23    
Precipitation  
Precipitation 0.00 in - - ()
Sea Level Pressure  
Sea Level Pressure 30.13 in    
Wind  
Wind Speed 12 mph (North)    
Max Wind Speed 17 mph    
Max Gust Speed 30 mph    
Visibility 10 miles    
Events      
Averages and records for this station are not official NWS values.
T = Trace of Precipitation, MM = Missing Value Source: NWS Daily Summary

Daily Weather History Graph

Daily Weather History Graph

Search for Another Location

Airport or City:

Trip Planner

Search our weather history database for the weather conditions in past years. The results will help you decide how hot, cold, wet, or windy it might be!

Date:

Astronomy

Nov. 23, 2013 Rise Set
Actual Time 6:59 AM EST 4:51 PM EST
Civil Twilight 6:31 AM EST 5:20 PM EST
Nautical Twilight 5:58 AM EST 5:52 PM EST
Astronomical Twilight 5:26 AM EST 6:24 PM EST
Moon 10:16 PM EST (11/23) 11:16 AM EST (11/23)
Length of Visible Light 10h 49m
Length of Day
9h 51m
Waning Gibbous, 70% of the Moon is Illuminated
Nov 23
Waning Gibbous
Nov 25
Last Quarter
Dec 2
New
Dec 9
First Quarter
Dec 17
Full

Hourly Weather History & Observations

Time (EST) Temp. Windchill Dew Point Humidity Pressure Visibility Wind Dir Wind Speed Gust Speed Precip Events Conditions
12:56 AM 57.9 °F - 46.0 °F 65% 30.06 in 10.0 mi North 11.5 mph - N/A   Overcast
1:56 AM 55.0 °F - 43.0 °F 64% 30.08 in 10.0 mi North 11.5 mph 24.2 mph N/A   Clear
2:56 AM 53.1 °F - 41.0 °F 64% 30.11 in 10.0 mi NNW 12.7 mph 20.7 mph N/A   Partly Cloudy
3:56 AM 50.0 °F - 37.9 °F 63% 30.11 in 10.0 mi North 12.7 mph 24.2 mph N/A   Clear
4:56 AM 48.9 °F - 35.1 °F 59% 30.12 in 10.0 mi NNW 16.1 mph 26.5 mph N/A   Mostly Cloudy
5:56 AM 46.9 °F - 33.1 °F 59% 30.14 in 10.0 mi North 16.1 mph 28.8 mph N/A   Clear
6:56 AM 45.0 °F 40.1 °F 30.9 °F 58% 30.16 in 10.0 mi North 9.2 mph 20.7 mph N/A   Clear
7:56 AM 44.1 °F 37.1 °F 28.0 °F 53% 30.18 in 10.0 mi North 15.0 mph 23.0 mph N/A   Clear
8:56 AM 44.1 °F 39.5 °F 27.0 °F 51% 30.19 in 10.0 mi North 8.1 mph - N/A   Clear
9:56 AM 45.0 °F 41.2 °F 25.0 °F 46% 30.19 in 10.0 mi NNW 6.9 mph - N/A   Clear
10:56 AM 48.9 °F - 21.9 °F 35% 30.16 in 10.0 mi NNW 10.4 mph - N/A   Clear
11:56 AM 48.9 °F - 19.9 °F 32% 30.13 in 10.0 mi NNW 11.5 mph - N/A   Clear
12:56 PM 52.0 °F - 23.0 °F 32% 30.09 in 10.0 mi North 9.2 mph - N/A   Clear
1:56 PM 54.0 °F - 17.1 °F 23% 30.06 in 10.0 mi NNW 11.5 mph 17.3 mph N/A   Clear
2:56 PM 52.0 °F - 19.0 °F 27% 30.06 in 10.0 mi North 6.9 mph - N/A   Clear
3:56 PM 50.0 °F - 21.9 °F 33% 30.06 in 10.0 mi North 9.2 mph - N/A   Clear
4:56 PM 48.0 °F - 23.0 °F 37% 30.07 in 10.0 mi Calm Calm - N/A   Clear
5:56 PM 46.9 °F - 19.9 °F 34% 30.08 in 10.0 mi North 9.2 mph - N/A   Clear
6:56 PM 45.0 °F 37.9 °F 15.1 °F 30% 30.10 in 10.0 mi NNW 16.1 mph 29.9 mph N/A   Clear
7:56 PM 43.0 °F 35.4 °F 14.0 °F 31% 30.13 in 10.0 mi NNW 16.1 mph 24.2 mph N/A   Partly Cloudy
8:56 PM 41.0 °F 32.8 °F 15.1 °F 35% 30.15 in 10.0 mi NNW 16.1 mph 23.0 mph N/A   Mostly Cloudy
9:56 PM 39.0 °F 31.0 °F 19.0 °F 45% 30.18 in 10.0 mi North 13.8 mph 25.3 mph N/A   Mostly Cloudy
10:56 PM 36.0 °F 26.0 °F 21.0 °F 55% 30.22 in 10.0 mi North 17.3 mph 23.0 mph N/A   Overcast
11:56 PM 34.0 °F 23.4 °F 19.9 °F 56% 30.25 in 10.0 mi North 17.3 mph 28.8 mph N/A   Overcast